Weather Roundup
Issued by NWS Chicago, IL

Home | Current Version | Previous Version | Text Only | Print | Product List | Glossary Off
Versions: 1 2 3 4 5 6 7 8 9 10 11 12 13 14 15 16 17 18 19 20 21 22 23 24 25 26 27 28 29 30 31 32 33 34 35 36 37 38 39 40 41 42 43 44 45 46 47 48 49 50

000
NZUS59 KLOT 240803
HRRLOT

CHICAGO AREA WEATHER ROUNDUP
NATIONAL WEATHER SERVICE CHICAGO/ROMEOVILLE IL
200 AM CST WED JAN 24 2018

NOTE: "FAIR" INDICATES FEW OR NO CLOUDS BELOW 12,000 FEET WITH NO
SIGNIFICANT WEATHER AND/OR OBSTRUCTIONS TO VISIBILITY.

* THESE STATIONS ARE NOT UNDER NWS QUALITY CONTROL. THEY ALSO MAY NOT
  REPORT WEATHER SUCH AS PRECIPITATION OR FOG.

ILZ005-006-012>014-019>023-240900-
NORTHEAST ILLINOIS

CITY           SKY/WX    TMP DP  RH WIND       PRES   REMARKS
OHARE          CLOUDY    28  21  75 NW7       30.18R WCI  21
MIDWAY         FLURRIES  29  23  78 W6        30.18R WCI  23
AURORA         CLOUDY    28  25  88 W9        30.18R WCI  19
LANSING*       CLOUDY    28  25  87 W8        30.19R WCI  20
JOLIET*        CLOUDY    30  27  88 W5        30.20R WCI  25
WAUKEGAN       CLOUDY    26  23  88 CALM      30.17R
DUPAGE AIRPORT CLOUDY    27  24  89 NW7       30.17R WCI  19
WHEELING       CLOUDY    28  22  78 NW6       30.19R WCI  22
KANKAKEE*      CLOUDY   N/A N/A N/A W14       30.21R
MORRIS*        MIX PCPN  28  25  88 W9        30.20R WCI  19
LEWIS AIRPORT* CLOUDY    28  25  86 W3        30.19R
NORTHERLY ISL    N/A     28  22  78 NW5         N/A  WCI  23
$$

WIZ051-052-058>065-066-070>072-240900-
SOUTHEAST WISCONSIN

CITY           SKY/WX    TMP DP  RH WIND       PRES   REMARKS
MILWAUKEE      CLOUDY    28  23  81 W7        30.17R WCI  21
KENOSHA*       CLOUDY    26  21  81 W6        30.17R WCI  19
RACINE*        CLOUDY    26  23  88 W6        30.18R WCI  19
BURLINGTON     MOCLDY    26  21  82 W7        30.17R WCI  18
$$

INZ001>003-010>013-019-020-240900-
NORTHWEST INDIANA

CITY           SKY/WX    TMP DP  RH WIND       PRES   REMARKS
GARY*          CLOUDY    30  24  77 W7        30.19R WCI  23
MICHIGAN CITY* NOT AVBL
RENSSELAER*    NOT AVBL
VALPARAISO     CLOUDY    30  23  75 W8        30.18R WCI  22
$$

LMZ740>746-240900-
SOUTHERN LAKE MICHIGAN

STATION/POSITION TIME  SKY/WX   TEMP WIND        PRES    VSBY
                                AIR  DIR/SP/G
                 (UTC)          (F)  (DEG/KT/KT) (MB)    (MI)
HARRISON CRIB    0740            29  270/ 10/ 12   N/A
BURNHAM HARBOR   0800            28  270/  8/ 10   N/A
CALUMET HARBOR   0730            28  270/  6/  9 1021.3R
BURNS HARBOR     0730            29  330/  8/ 10 1022.4R
MICHIGAN CITY    0740            29  290/ 13/ 14   N/A
$$

ABBREVIATIONS USED IN REMARKS
   TC - TEMPERATURE IN CELSIUS
  WCI - WIND CHILL INDEX
   HX - HEAT INDEX
  VSB - VISIBILITY
$$



USA.gov is the U.S. government's official web portal to all federal, state and local government web resources and services.